カタログに戻る

ANTIE 03

運用中科学SSO
NORAD 69541·PAYLOAD·🇨🇳 China
この衛星名は、まだ公式ソースで確認されていません。

打ち上げ Jun 15, 2026 から Jiuquan Satellite Launch Center

Loading…

次のパス (今後24時間)

TLE

最新Source: Space-Track

元期: Sep 14, 2026, 03:12 UTC

1 69541U 26134D   26257.13335100  .00004114  00000-0  26189-3 0  9998
2 69541  97.6959 327.6414 0019497 332.2350  27.7836 15.09195004 13727

AllMySatでANTIE 03をリアルタイム追跡

Download on the App Store